Flag for Germany Weather past 2 weeks in Paderborn, North Rhine-Westphalia, Germany

Now
48 °F

Passing clouds.


Feels Like: 42 °F
Forecast: 48 / 51 °F
Wind: 17 mph from West

Location: Paderborn / Lippstadt

Current Time: Dec 22, 2014 at 9:44:19 PM

Latest Report: Dec 22, 2014 at 9:20 PM


Visibility: 5 mi

Pressure: 29.98 "Hg

Humidity: 100%

Dew point: 48 °F

Location of PaderbornLocation

Historic Weather in Paderborn — Graph

°F

Paderborn temperature yesterday

Maximum temperature yesterday: 45 °F (at 8:50 PM)
Minimum temperature yesterday: 37 °F (at 12:20 AM)
Average temperature yesterday: 41 °F

Past Weeks' High & Low Weather Summary

 TemperatureHumidityPressure
High54 °F (Dec 18, 5:50 PM)100% (Dec 8, 12:50 AM)30.36 "Hg (Dec 8, 12:50 AM)
Low27 °F (Dec 15, 12:50 AM)56% (Dec 10, 5:20 AM)29.39 "Hg (Dec 12, 2:50 PM)
Average40 °F86%29.92 "Hg
* Reported Dec 7 8:20 PM — Dec 22 8:20 PM, Paderborn, Weather by CustomWeather, © 2014

Note: Actual official high and low records may vary slightly from our data, if they occured in-between our weather recording intervals... More about our weather records

Advertising

Paderborn weather history for previous 24 hours

 ConditionsComfort  
Time TempWeatherWind HumidityBarometerVisibility
8:20 PM
Dec 22
50 °FPassing clouds.22 mph94%29.98 "Hg5 mi
7:50 PM48 °FPassing clouds.20 mph100%29.98 "Hg5 mi
7:20 PM48 °FPassing clouds.22 mph100%30.01 "Hg5 mi
6:50 PM48 °FPassing clouds.21 mph100%30.01 "Hg6 mi
6:20 PM48 °FPassing clouds.20 mph100%30.01 "Hg6 mi
5:50 PM48 °FPassing clouds.22 mph87%30.01 "HgN/A
5:20 PM50 °FPassing clouds.21 mph76%30.01 "HgN/A
4:50 PM50 °FPassing clouds.22 mph76%29.98 "HgN/A
4:20 PM50 °FPassing clouds.23 mph76%29.98 "HgN/A
3:50 PM50 °FLight rain. Partly sunny.22 mph76%29.98 "HgN/A
3:20 PM50 °FLight rain. Partly sunny.23 mph76%29.98 "HgN/A
2:50 PM50 °FLight rain. Partly sunny.22 mph82%29.98 "HgN/A
2:20 PM48 °FLight rain. Partly sunny.20 mph82%29.98 "HgN/A
1:50 PM48 °FPartly sunny.20 mph82%29.98 "HgN/A
1:20 PM48 °FPartly sunny.25 mph82%29.98 "HgN/A
12:50 PM48 °FPartly sunny.23 mph82%29.98 "HgN/A
12:20 PM48 °FPartly sunny.28 mph87%29.98 "HgN/A
11:50 AM46 °FPartly sunny.24 mph87%30.01 "HgN/A
11:20 AM46 °FPartly sunny.25 mph87%30.01 "HgN/A
10:50 AM46 °FPartly sunny.25 mph87%30.01 "HgN/A
10:20 AM46 °FPartly sunny.24 mph87%30.04 "HgN/A
9:50 AM46 °FPartly sunny.23 mph87%30.01 "HgN/A
9:20 AM46 °FPartly sunny.23 mph87%30.04 "HgN/A
8:50 AM46 °FPartly sunny.22 mph87%30.04 "HgN/A
8:20 AM45 °FPassing clouds.24 mph93%30.01 "HgN/A
7:50 AM45 °FPassing clouds.24 mph93%30.04 "HgN/A
7:20 AM45 °FPassing clouds.26 mph93%30.04 "HgN/A
6:50 AM45 °FPassing clouds.23 mph93%30.04 "HgN/A
6:20 AM46 °FLight rain. Passing clouds.20 mph87%30.04 "HgN/A
5:50 AM45 °FSprinkles. Passing clouds.21 mph93%30.04 "Hg4 mi
5:20 AM46 °FSprinkles. Passing clouds.24 mph82%30.04 "HgN/A
4:20 AM46 °FPassing clouds.23 mph82%30.04 "HgN/A
3:50 AM46 °FPassing clouds.20 mph82%30.07 "HgN/A
3:20 AM45 °FPassing clouds.18 mph87%30.07 "HgN/A
2:50 AM45 °FPassing clouds.23 mph87%30.07 "HgN/A
2:20 AM45 °FPassing clouds.20 mph87%30.09 "HgN/A
1:50 AM45 °FPassing clouds.22 mph87%30.09 "HgN/A
1:20 AM45 °FPartly cloudy.21 mph81%30.09 "HgN/A
12:50 AM45 °FPartly cloudy.21 mph81%30.12 "HgN/A
12:20 AM45 °FPartly cloudy.12 mph87%30.12 "HgN/A
11:50 PM
Dec 21
45 °FPassing clouds.21 mph87%30.12 "HgN/A
11:20 PM45 °FPassing clouds.21 mph87%30.12 "HgN/A
10:20 PM45 °FPassing clouds.17 mph87%30.15 "HgN/A
9:50 PM45 °FPassing clouds.17 mph87%30.15 "HgN/A
9:20 PM45 °FPassing clouds.17 mph87%30.15 "HgN/A
Weather by CustomWeather, © 2014

See weather overviewHow to use our weather pages